Mather AFB, CA

8:11 PM PDT on October 20, 2017 (GMT -0700)
Mather

Weather History for KMHR - April, 2013

Change the Weather History Date:

Friday, April 26, 2013

  Actual Average Record
Temperature  
Mean Temperature 61 °F -  
Max Temperature 80 °F 70 °F 95 °F (2004)
Min Temperature 42 °F 44 °F 35 °F (2011)
Degree Days  
Heating Degree Days 4    
Growing Degree Days 11 (Base 50)    
Moisture  
Dew Point 47 °F    
Average Humidity 72    
Maximum Humidity 100    
Minimum Humidity 32    
Precipitation  
Precipitation 0.00 in - - ()
Sea Level Pressure  
Sea Level Pressure 30.14 in    
Wind  
Wind Speed 6 mph (SSE)    
Max Wind Speed 9 mph    
Max Gust Speed -    
Visibility 10 miles    
Events      
Averages and records for this station are not official NWS values.
T = Trace of Precipitation, MM = Missing Value Source: NWS Daily Summary

Daily Weather History Graph

Daily Weather History Graph

Search for Another Location

Airport or City:

Trip Planner

Search our weather history database for the weather conditions in past years. The results will help you decide how hot, cold, wet, or windy it might be!

Date:

Astronomy

Apr. 26, 2013 Rise Set
Actual Time 6:13 AM PDT 7:52 PM PDT
Civil Twilight 5:45 AM PDT 8:20 PM PDT
Nautical Twilight 5:11 AM PDT 8:55 PM PDT
Astronomical Twilight 4:35 AM PDT 9:31 PM PDT
Moon 9:20 PM PDT (4/26) 6:46 AM PDT (4/26)
Length of Visible Light 14h 35m
Length of Day
13h 38m
Full, 99% of the Moon is Illuminated
Apr 26
Full
May 2
Last Quarter
May 9
New
May 17
First Quarter
May 24
Full

Hourly Weather History & Observations

Time (PDT) Temp. Windchill Dew Point Humidity Pressure Visibility Wind Dir Wind Speed Gust Speed Precip Events Conditions
12:46 AM 46.4 °F 42.9 °F 44.6 °F 93% 30.11 in 10.0 mi ESE 6.9 mph - N/A   Clear
1:46 AM 46.4 °F 42.9 °F 44.6 °F 93% 30.11 in 10.0 mi ESE 6.9 mph - N/A   Clear
2:46 AM 44.6 °F 40.7 °F 44.6 °F 100% 30.11 in 10.0 mi ESE 6.9 mph - N/A   Clear
3:46 AM 46.4 °F 44.3 °F 44.6 °F 93% 30.12 in 10.0 mi SE 4.6 mph - N/A   Clear
4:46 AM 44.6 °F 41.4 °F 44.6 °F 100% 30.13 in 10.0 mi SE 5.8 mph - N/A   Clear
5:46 AM 42.8 °F 38.6 °F 42.8 °F 100% 30.14 in 10.0 mi SE 6.9 mph - N/A   Clear
6:48 AM 44.6 °F 41.4 °F 44.6 °F 100% 30.16 in 10.0 mi ESE 5.8 mph - N/A   Clear
8:45 AM 53.6 °F - 48.2 °F 82% 30.20 in 10.0 mi South 5.8 mph - N/A   Partly Cloudy
9:46 AM 57.2 °F - 48.2 °F 72% 30.20 in 10.0 mi SE 6.9 mph - N/A   Clear
10:56 AM 62.6 °F - 48.2 °F 59% 30.20 in 10.0 mi Calm Calm - N/A   Clear
11:45 AM 66.2 °F - 48.2 °F 52% 30.20 in 10.0 mi South 5.8 mph - N/A   Clear
12:45 PM 71.6 °F - 48.2 °F 43% 30.17 in 10.0 mi South 5.8 mph - N/A   Clear
1:45 PM 73.4 °F - 46.4 °F 38% 30.16 in 10.0 mi WSW 6.9 mph - N/A   Clear
3:45 PM 77.0 °F - 46.4 °F 34% 30.12 in 10.0 mi WNW 4.6 mph - N/A   Clear
5:45 PM 80.6 °F - 48.2 °F 32% 30.10 in 10.0 mi South 6.9 mph - N/A   Clear
6:55 PM 77.0 °F - 50.0 °F 39% 30.10 in 10.0 mi SSW 9.2 mph - N/A   Clear
7:55 PM 66.2 °F - 50.0 °F 56% 30.11 in 10.0 mi SSW 6.9 mph - N/A   Clear
8:45 PM 64.4 °F - 50.0 °F 59% 30.12 in 10.0 mi SSW 6.9 mph - N/A   Clear
9:55 PM 57.2 °F - 50.0 °F 77% 30.15 in 10.0 mi SSE 3.5 mph - N/A   Clear
10:55 PM 50.0 °F - 48.2 °F 94% 30.15 in 10.0 mi SSE 4.6 mph - N/A   Clear
11:45 PM 51.8 °F - 48.2 °F 88% 30.15 in 10.0 mi SSE 5.8 mph - N/A   Clear